This demonstration page uses our WeatherBlox Daily Observations layout. Learn more.

Left ArrowRight Arrow

44.8408, -93.29828

Hourly Observations for December 1, 2022

Temp ( °F °C ) Dew Point ( °F °C ) Humidity (%) Winds ( mph kmh ) Pressure ( in mb ) Visibility ( mi km ) Precip ( " mm )
12:53 am 00:53 Clear 10 -12.2 5 -15 80 80 SSW 5 7 30.38 1029 10 16 0.00 0.00
1:53 am 01:53 Clear 10 -12.2 4 -15.6 76 76 SW 6 9 30.38 1029 10 16 0.00 0.00
2:53 am 02:53 Clear 9 -12.8 4 -15.6 79 79 SW 6 9 30.38 1029 10 16 0.00 0.00
3:53 am 03:53 Mostly Clear 9 -12.8 4 -15.6 79 79 S 3 6 30.37 1029 10 16 0.00 0.00
4:53 am 04:53 Partly Cloudy 9 -12.8 4 -15.6 79 79 SE 3 6 30.37 1028 10 16 0.00 0.00
5:53 am 05:53 Mostly Cloudy 10 -12.2 4 -15.6 76 76 SE 6 9 30.35 1028 10 16 0.00 0.00
6:53 am 06:53 Cloudy 12 -11.1 6 -14.4 76 76 SE 7 11 30.31 1026 10 16 0.00 0.00
7:53 am 07:53 Mostly Cloudy 12 -11.1 5 -15 73 73 SE 8 13 30.30 1026 10 16 0.00 0.00
8:53 am 08:53 Mostly Cloudy 14 -10 6 -14.4 70 70 SSE 12 19 30.27 1025 10 16 0.00 0.00
9:53 am 09:53 Partly Cloudy 18 -7.8 8 -13.3 65 65 SSE 14 22 30.23 1024 10 16 0.00 0.00
10:53 am 10:53 Partly Cloudy 23 -5 10 -12.2 57 57 SSE 16 26 30.18 1022 10 16 0.00 0.00
11:31 am 11:31 Partly Cloudy 25 -3.9 11 -11.7 54 54 SSE 20 31 30.14 1021 10 16 0.00 0.00
11:53 am 11:53 Partly Cloudy 27 -2.8 12 -11.1 53 53 S 17 28 30.11 1020 10 16 0.00 0.00
12:53 pm 12:53 Mostly Cloudy 29 -1.7 13 -10.6 51 51 S 17 28 30.09 1019 10 16 0.00 0.00
1:37 pm 13:37 Mostly Cloudy 31 -0.6 14 -10 49 49 S 12 19 30.04 1017 10 16 0.00 0.00
1:53 pm 13:53 Mostly Cloudy 31 -0.6 14 -10 49 49 S 20 31 30.02 1017 10 16 0.00 0.00
2:53 pm 14:53 Mostly Cloudy 32 0 16 -8.9 51 51 S 20 31 30.00 1016 10 16 0.00 0.00
3:53 pm 15:53 Cloudy 31 -0.6 17 -8.3 56 56 SSE 15 24 29.99 1016 10 16 0.00 0.00
4:53 pm 16:53 Cloudy 30 -1.1 18 -7.8 60 60 SSE 14 22 29.97 1015 10 16 0.00 0.00
5:53 pm 17:53 Cloudy 30 -1.1 18 -7.8 60 60 SSE 13 20 29.96 1014 10 16 0.00 0.00
7:53 pm 19:53 Cloudy 31 -0.6 19 -7.2 61 61 SSE 15 24 29.91 1013 10 16 0.00 0.00
8:53 pm 20:53 Mostly Cloudy 31 -0.6 18 -7.8 58 58 SSE 17 28 29.88 1012 10 16 0.00 0.00
9:53 pm 21:53 Mostly Cloudy 32 0 18 -7.8 56 56 S 12 19 29.86 1011 10 16 0.00 0.00
10:53 pm 22:53 Mostly Cloudy 31 -0.6 19 -7.2 61 61 SSE 10 17 29.83 1010 10 16 0.00 0.00
11:53 pm 23:53 Mostly Cloudy 32 0 20 -6.7 61 61 S 13 20 29.81 1009 10 16 0.00 0.00

Powered by AerisWeather